Starlink 3296

operational
NORAD ID: 50168 Int'l Des: 2021-125 Owner: SPXS Country: US Constellation: starlink
LEOCIRCULAR

Starlink 3296について

説明を読み込み中...

リアルタイム位置

3D地球を読み込み中...

次回通過

高度履歴

Altitude vs Time

uPlot chart will show altitude changes over time

軌道要素

1 50168U 21125N 25305.14643715 -.00000137 00000-0 94562-5 0 9990
2 50168 53.2156 106.2588 0001064 126.6150 233.4940 15.08835804217193
Epoch: Nov 1, 2025 • Age: 21 hours

現在のステータス

高度 542.9 km
速度 7.60 km/s
衛星直下点 38.64°N, 91.19°E
打ち上げ日 Dec 18, 2021
運用期間 3.8 years
タイプ internet

技術仕様

分類 Payload
質量 290.00 kg
乾燥質量 270.00 kg
総質量 290.00 kg
長さ 0.20 m
直径 2.80 m
スパン 9.00 m
形状 Box + pan
製造者 SPXS
バスタイプ Starlink
フェーズステータス In Orbit
所有者/国 SPXS/US

大規模コンステレーション

Loading constellations...